Find Starlink 1567

NORAD ID: 46038 Int'l Des: 2020-055 Owner: SPXS Country: US Constellation: starlink decayed
LEOCIRCULARSTARLINK_TYPE

Re-entered — 10. Mai 2026

3D-Globus wird geladen...

About Starlink 1567

Starlink 1567 (NORAD 46038) is a starlink constellation satellite (v1.0) launched Aug 7, 2020 by SPXS of US. It re-entered the atmosphere on May 10, 2026. with a mass of 260.00 kg.

Über Starlink 1567

Beschreibung wird geladen...

Höhenverlauf

Loading altitude history...

Zweizeiliger Elementsatz

1 46038U 20055M 26129.91495522 .10208208 12394-4 67510-3 0 9996
2 46038 53.0669 182.5473 0005674 278.8115 81.2290 16.40744495318521
Epoch: 9. Mai 2026 • Age: 1162 hours

Aktueller Status

Position data unavailable
Startdatum 7. Aug. 2020
Alter 5.8 years
Verglühungsdatum 10. Mai 2026
Typ internet

Technische Details

Klassifizierung Payload
Masse 260.00 kg
Trockenmasse 248.00 kg
Gesamtmasse 260.00 kg
Länge 0.20 m
Durchmesser 2.80 m
Spannweite 9.00 m
Form Box + pan
Hersteller SPXS
Bus-Typ Starlink
Phasenstatus Reentered
Besitzer/Staat SPXS/US

Most Searched